Location: Winterland
(47.1574°N, 55.3067°W)
Time: 14:14:29
(UTC+00:00)

Tiangong - Pass Details

Date: 19 August 2022
Orbit: 377 x 382 km, 41.5° (Epoch: 27 September)

Event Time Altitude Azimuth Distance (km) Brightness Sun altitude
Rises 00:29:49 0° 249° (WSW) 2,235 2.1 -15.9°
Reaches altitude 10° 00:32:03 10° 237° (WSW) 1,383 0.9 -16.2°
Enters shadow 00:34:14 26° 196° (SSW) 784 -0.8 -16.5°
